Weather observations for the past three days for
Meridian, Key Field
Imperial (Metric)
Date Time (cdt) Wind (mph) Vis. (mi.) Weather Sky Cond. Temperature (ºF) Relative Humidity Wind Chill (°F) Heat Index (°F) Pressure Precipitation (in)
Air Dwpt 6 hour altimeter (in) sea level (mb) 1 hr 3 hr 6 hr
Max. Min.
13 13:58 Calm 10.00 Fair CLR 89.1 60.1 38% 89 29.95 1013.7
13 12:58 Vrbl 5 10.00 Fair CLR 89.1 62.1 89.1 66 41% 89 29.97 1014.4
13 11:58 Calm 10.00 Fair CLR 86 62.1 45% 87 29.97 1014.6
13 10:58 Calm 10.00 A Few Clouds FEW047 84.9 62.1 46% 85 29.98 1014.7
13 09:58 E 6 10.00 Fair CLR 82.9 64 53% 84 29.98 1014.8
13 08:58 NE 6 10.00 Fair CLR 79 64 60% 81 29.98 1014.9
13 07:58 Calm 10.00 Fair CLR 72 64 76% 29.98 1014.7
13 06:58 Calm 10.00 Fair CLR 66 62.1 66 61 87% 29.97 1014.3
13 05:58 Calm 10.00 Fair CLR 62.1 59 90% 29.95 1013.9
13 04:58 Calm 10.00 Fair CLR 62.1 59 90% 29.93 1013.1
13 03:58 Calm 10.00 Fair CLR 63 61 93% 29.92 1012.8
13 02:58 Calm 10.00 Fair CLR 64 61 90% 29.92 1012.7
13 01:58 Calm 10.00 Fair CLR 64 62.1 93% 29.92 1012.7
13 00:58 Calm 10.00 Fair CLR 64.9 62.1 84.9 64.9 90% 29.93 1013.0
12 23:58 Calm 10.00 Fair CLR 66.9 63 87% 29.94 1013.6
12 22:58 Calm 10.00 Fair CLR 68 64 87% 29.95 1013.8
12 21:58 Calm 10.00 Fair CLR 70 64 82% 29.95 1013.7
12 20:58 Calm 10.00 Fair CLR 73 64.9 76% 29.93 1013.3
12 19:58 NW 3 10.00 Fair CLR 77 64.9 66% 79 29.93 1013.4
12 18:58 NW 5 10.00 Fair CLR 84.9 62.1 89.1 84 46% 85 29.93 1013.1
12 17:58 Vrbl 5 10.00 Fair CLR 87.1 60.1 40% 87 29.93 1013.0
12 16:58 NW 6 10.00 Fair CLR 87.1 57 36% 86 29.92 1012.8
12 15:58 N 6 10.00 Fair CLR 86 57 37% 85 29.93 1013.0
12 14:58 W 6 10.00 Fair CLR 87.1 59 39% 86 29.94 1013.4
12 13:58 W 6 10.00 Fair CLR 86 59 40% 85 29.96 1014.0
12 12:58 Vrbl 3 10.00 Fair CLR 84.9 57 86 64 39% 84 29.97 1014.5
12 11:58 Calm 10.00 Fair CLR 84.9 57 39% 84 29.99 1015.0
12 10:58 Calm 10.00 Fair CLR 81 61 51% 82 29.99 1015.0
12 09:58 Calm 10.00 Fair CLR 77 60.1 56% 79 29.99 1015.3
12 08:58 NE 5 10.00 Fair CLR 73.9 57.9 57% 29.99 1015.4
12 07:58 N 6 10.00 Fair CLR 68 60.1 76% 29.99 1015.2
12 06:58 N 3 10.00 Fair CLR 64.9 59 64.9 60.1 81% 29.97 1014.5
12 05:58 N 3 10.00 Fair CLR 60.1 57 90% 29.96 1014.3
12 04:58 NW 3 10.00 Fair CLR 60.1 57.9 93% 29.95 1014.0
12 03:58 Calm 10.00 Fair CLR 62.1 59 90% 29.94 1013.5
12 02:58 Calm 10.00 Fair CLR 62.1 59 90% 29.94 1013.4
12 01:58 Calm 10.00 Fair CLR 64 59 84% 29.94 1013.5
12 00:58 Calm 10.00 Fair CLR 64.9 60.1 81 64 84% 29.95 1013.8
11 23:58 Calm 10.00 Fair CLR 66 59 78% 29.95 1013.9
11 22:58 N 3 10.00 Fair CLR 68 60.1 76% 29.94 1013.6
11 21:58 N 3 10.00 Fair CLR 69.1 61 76% 29.94 1013.3
11 19:58 N 5 10.00 Fair CLR 75 62.1 64% 77 29.92 1012.7
11 18:58 N 12 10.00 Fair CLR 82 60.1 87.1 82 47% 82 29.9 1011.9
11 17:58 N 9 10.00 Fair CLR 84 60.1 44% 84 29.88 1011.5
11 16:58 N 10 10.00 Fair CLR 86 61 43% 86 29.89 1011.6
11 15:58 N 9 10.00 Fair CLR 86 57.9 39% 85 29.9 1012.0
11 14:58 N 12 G 17 10.00 Fair CLR 86 60.1 42% 86 29.9 1012.2
11 13:58 NE 7 G 16 10.00 Fair CLR 86 61 43% 86 29.92 1012.8
11 12:58 Calm 10.00 Fair CLR 84 59 84.9 66.9 43% 84 29.93 1013.0
11 11:58 N 10 10.00 Fair CLR 82 59 46% 82 29.94 1013.6
11 10:58 E 8 10.00 Fair CLR 82 57.9 44% 82 29.95 1013.8
11 09:58 NE 8 10.00 Fair CLR 79 59 50% 80 29.95 1013.7
11 08:58 NE 7 10.00 Fair CLR 75 60.1 60% 77 29.95 1013.7
11 07:58 NW 3 10.00 Fair CLR 68 62.1 81% 29.94 1013.6
11 06:58 N 5 10.00 Fair CLR 66.9 61 68 64 81% 29.94 1013.4
11 04:58 N 6 10.00 Fair CLR 64 60.1 87% 29.92 1012.6
11 03:58 N 3 10.00 Fair CLR 64.9 62.1 90% 29.9 1012.1
11 02:58 Calm 10.00 Fair CLR 66 62.1 87% 29.89 1011.6
11 01:58 NW 3 10.00 Fair CLR 66 63 90% 29.89 1011.6
11 00:58 Calm 10.00 Fair CLR 68 64 82 68 87% 29.9 1011.9
10 22:58 NW 3 10.00 Fair CLR 69.1 64 84% 29.89 1011.8
10 21:58 Calm 10.00 Fair CLR 72 64 76% 29.88 1011.3
10 20:58 NW 6 10.00 Fair CLR 73 64.9 76% 29.84 1010.1
10 19:58 N 5 10.00 Fair CLR 77 63 62% 79 29.83 1009.7
10 18:58 N 10 10.00 Fair CLR 82.9 60.1 89.1 82.9 46% 83 29.81 1009.1
10 17:58 N 15 10.00 Fair CLR 84.9 63 48% 86 29.81 1008.9
10 16:58 N 14 10.00 Fair CLR 86 66.9 53% 89 29.81 1009.1
10 15:58 N 10 10.00 A Few Clouds FEW036 86 71.1 61% 92 29.83 1009.6
10 14:58 N 7 10.00 A Few Clouds FEW042 89.1 72 57% 96 29.84 1010.0
Date Time (cdt) Wind (mph) Vis. (mi.) Weather Sky Cond. Air Dwpt Max. Min. Relative Humidity Wind Chill (°F) Heat Index (°F) altimeter (in) sea level (mb) 1 hr 3 hr 6 hr
6 hour
Temperature (ºF) Pressure Precipitation (in)